Overview Statistics Trail Chart Weather Telemetry Raw packets
 

This is the latest recevied weather packets stored in our database for station/object CQ0XCH-11. If no packets are shown the sender has not sent any weather packets the latest 10 day(s).

<< 104 105 106 107 108 109 110 >>
Time Temp. Humidity Pressure Rain* Wind** Luminosity Snow
1777369266 25.56° C 34% 988.8 hPa 0 mm - - -
1777369146 25.56° C 35% 988.8 hPa 0 mm - - -
1777369027 25.56° C 35% 988.7 hPa 0 mm - - -
1777368880 25.56° C 34% 988.7 hPa 0 mm - - -
1777368780 25.56° C 35% 988.6 hPa 0 mm - - -
1777368528 25.56° C 34% 988.7 hPa 0 mm - - -
1777368409 25.56° C 34% 988.6 hPa 0 mm - - -
1777368289 26.11° C 33% 988.6 hPa 0 mm - - -
1777368149 26.11° C 33% 988.6 hPa 0 mm - - -
1777368046 25.56° C 34% 988.8 hPa 0 mm - - -
1777367914 26.11° C 34% 988.7 hPa 0 mm - - -
1777367789 25.56° C 35% 988.8 hPa 0 mm - - -
1777367673 25° C 35% 988.8 hPa 0 mm - - -
1777367286 25° C 36% 989 hPa 0 mm - - -
1777367165 25° C 36% 988.8 hPa 0 mm - - -
1777367041 24.44° C 37% 988.9 hPa 0 mm - - -
1777366836 24.44° C 37% 988.9 hPa 0 mm - - -
1777366688 24.44° C 37% 988.8 hPa 0 mm - - -
1777366556 24.44° C 36% 988.8 hPa 0 mm - - -
1777366440 25° C 35% 988.8 hPa 0 mm - - -
1777366306 25° C 34% 988.8 hPa 0 mm - - -
1777366106 26.11° C 32% 988.7 hPa 0 mm - - -
1777365809 26.11° C 32% 988.7 hPa 0 mm - - -
1777365583 26.11° C 34% 988.7 hPa 0 mm - - -
1777365453 26.11° C 34% 988.7 hPa 0 mm - - -

* Rain since midnight (hover to see other rain measurements)
** Current wind speed in m/s (hover to see current wind gust speed)